Regional Weather Roundup
Issued by NWS

Home | Current Version | Previous Version | Graphics & Text | Print | Product List | Glossary On
Versions: 1 2 3 4 5 6 7 8 9 10 11 12 13 14 15 16 17 18 19 20 21 22 23 24 25 26 27 28 29 30 31 32 33 34 35 36 37 38 39 40 41 42 43 44 45 46 47 48 49 50
038
ASUS45 KSLC 241410
RWRUT

UTAH REGIONAL WEATHER ROUNDUP
NATIONAL WEATHER SERVICE SALT LAKE CITY UT
800 AM MDT SAT SEP 24 2016

UTZ001>011-023>025-241500-

NORTHERN UTAH

CITY           SKY/WX    TMP DP  RH WIND       PRES   REMARKS
BRIGHAM CITY     N/A     48  46  90 CALM      30.16R
HILL AFB       LGT RAIN  49  43  80 SW2       30.16R
LOGAN          CLOUDY    44  43  96 NW3       30.15R
OGDEN          LGT RAIN  49  45  86 CALM      30.15R
PROVO AIRPORT  LGT RAIN  46  44  93 MISG      30.20R
SALT LAKE CITY LGT RAIN  52  45  77 W12       30.16R
VERNAL         LGT RAIN  44  42  93 SE5       30.10R
WENDOVER       CLEAR     54  36  50 NW33G44   30.16F
HEBER CITY     MIX PCPN  41  37  87 CALM      30.15R
WEST JORDAN    CLOUDY    46  45  93 CALM      30.18R

$$

UTZ012>022-026-027-241500-

SOUTHERN/CENTRAL UTAH

CITY           SKY/WX    TMP DP  RH WIND       PRES   REMARKS
BLANDING       CLOUDY    44  38  80 CALM      30.26R
BRYCE CANYON   CLEAR     37  30  75 W6        30.25R WCI  32
CEDAR CITY     CLEAR     36  33  89 E3        30.21R
DELTA          CLOUDY    45  43  93 CALM      30.21R
MILFORD        PTCLDY    39  36  89 SW6       30.21R WCI  35
MOAB/CYNLANDS  CLOUDY    51  41  68 NW5       30.11R
PRICE          CLOUDY    44  38  79 CALM      30.14R
ST GEORGE      CLOUDY    52  37  58 S7        30.16R

$$

REGIONAL REPORTS     COLORADO/ARIZONA

CITY           SKY/WX    TMP DP  RH WIND       PRES   REMARKS
CRAIG, CO      LGT RAIN  43  36  76 SW10      30.10R
GRAND JUNCTION LGT RAIN  47  43  86 CALM      30.13R
RIFLE          LGT RAIN  43  42  97 CALM      30.14R
MONTROSE       CLOUDY    44  38  79 E3        30.16R
CORTEZ         CLOUDY    43  40  89 CALM      30.19R
PAGE, AZ       CLEAR     53  35  50 E5        30.16R
GRAND CANYON   CLEAR     33  30  88 CALM      30.25R
KINGMAN        CLEAR     45  32  60 CALM      30.14R
FLAGSTAFF      CLEAR     33  30  88 NE3       30.24R

$$

REGIONAL REPORTS    NEVADA/IDAHO/WYOMING

CITY           SKY/WX    TMP DP  RH WIND       PRES   REMARKS
LAS VEGAS, NV  CLEAR     64  25  22 SW3       30.11R
ELY            CLEAR     39  30  70 VRB5      30.29R
ELKO           CLEAR     45  35  68 SW3       30.28R
POCATELLO, ID  MOCLDY    45  42  89 SW14      30.15R
BURLEY         CLEAR     46  41  82 W21G26    30.15R
EVANSTON, WY   CLOUDY    34  32  92 W14       30.15R WCI  25
ROCK SPRINGS   CLOUDY    36  35  96 W15       30.06R WCI  27

$$




USA.gov is the U.S. government's official web portal to all federal, state and local government web resources and services.